Location: Stockholm
(59.3293°N, 18.0686°E)
Time: 08:19:10
(UTC+02:00)

ISS - Pass Details

Date: 28 March 2019
Orbit: 408 x 410 km, 51.6° (Epoch: 24 April)

Event Time Altitude Azimuth Distance (km) Brightness Sun altitude
Rises 19:19:52 0° 238° (WSW) 2,336 0.6 -8.2°
Reaches altitude 10° 19:22:16 10° 221° (SW) 1,475 -0.7 -8.5°
Maximum altitude 19:24:48 20° 171° (S) 1,003 -2.1 -8.8°
Enters shadow 19:26:52 12° 127° (SE) 1,339 -1.8 -9.0°
